DL8NDG-13 Weather Reports


Display with metric or nautical units.
time (UTC)temp
F
wind
direction
speed
MPH
gust
MPH
rain 1hr
in
rain 24hr
in
rain mn
in
humidity
%
barometer
mb
20260504034604 51 219 0.0 0.0 0.00 0.00 0.00 77 1013.0
20260504033108 52 219 0.0 0.0 0.00 0.00 0.00 75 1013.0
20260504031554 52 239 0.0 0.0 0.00 0.00 0.00 75 1013.1
20260504030053 52 221 0.0 0.0 0.00 0.00 0.00 75 1013.2
20260504024552 52 219 0.0 0.0 0.00 0.00 0.00 75 1013.2
20260504023051 52 217 0.0 0.0 0.00 0.00 0.00 75 1013.0
20260504021551 52 237 0.0 0.0 0.00 0.00 0.00 75 1013.0
20260504020049 52 220 0.0 0.0 0.00 0.00 0.00 74 1013.0
20260504014549 52 223 0.0 0.0 0.00 0.00 0.00 73 1013.0
20260504013049 53 221 0.0 0.0 0.00 0.00 0.00 71 1013.0
20260504011543 54 221 0.0 0.0 0.00 0.00 0.00 70 1013.1
20260504010051 54 221 0.0 0.0 0.00 0.00 0.00 68 1013.1
20260504004536 55 222 0.0 0.0 0.00 0.00 0.00 67 1013.1
20260504003032 56 223 0.0 0.0 0.00 0.00 0.00 65 1013.1
20260504001527 58 238 0.0 0.0 0.00 0.00 0.00 61 1013.1
20260504000023 59 237 0.0 0.0 0.00 0.00 0.00 59 1013.0
20260503234520 59 219 0.0 0.0 0.00 0.00 0.00 57 1013.2
20260503233015 60 220 0.0 4.0 0.00 0.00 0.00 56 1013.0
20260503231513 61 251 2.0 8.0 0.00 0.00 0.00 54 1013.1
20260503230010 62 207 4.0 14.0 0.00 0.00 0.00 54 1013.0
20260503224507 62 196 4.0 11.0 0.00 0.00 0.00 54 1012.9
20260503223004 63 200 5.0 13.0 0.00 0.00 0.00 54 1012.8
20260503221501 64 201 5.0 15.0 0.00 0.00 0.00 53 1012.4
20260503220112 64 219 7.0 16.0 0.00 0.00 0.00 53 1012.3
20260503214558 64 250 4.0 9.0 0.00 0.00 0.00 55 1012.2
20260503213059 64 231 0.0 0.0 0.00 0.00 0.00 56 1012.2
20260503211608 63 227 0.0 0.0 0.00 0.00 0.00 57 1012.2
20260503210057 63 218 0.0 0.0 0.00 0.00 0.00 59 1011.8
20260503204557 62 225 0.0 0.0 0.00 0.00 0.00 60 1011.6
20260503203054 61 252 0.0 0.0 0.00 0.00 0.00 64 1011.6
20260503201554 61 288 0.0 0.0 0.00 0.00 0.00 65 1011.5
20260503200053 61 286 0.0 0.0 0.00 0.00 0.00 64 1011.3
20260503194555 62 264 0.0 0.0 0.00 0.00 0.00 63 1011.1
20260503193054 63 261 0.0 0.0 0.00 0.00 0.00 62 1010.9
20260503191552 64 286 0.0 0.0 0.00 0.00 0.00 60 1010.9
20260503190051 65 267 0.0 0.0 0.00 0.00 0.00 59 1010.8
20260503184550 67 265 0.0 0.0 0.00 0.00 0.00 56 1010.8
20260503183049 69 264 0.0 0.0 0.00 0.00 0.00 53 1010.7
20260503181617 70 263 0.0 0.0 0.00 0.00 0.00 50 1010.6
20260503180059 71 287 0.0 0.0 0.00 0.00 0.00 47 1010.5
20260503174554 72 265 0.0 0.0 0.00 0.00 0.00 45 1010.3
20260503173146 72 266 0.0 0.0 0.00 0.00 0.00 44 1010.3
20260503171545 73 224 4.0 8.0 0.00 0.00 0.00 43 1010.3
20260503100108 74 38 0.0 0.0 0.00 0.00 0.00 43 1013.6
20260503081527 67 121 0.0 0.0 0.00 0.00 0.00 48 1014.2
20260503071515 62 92 0.0 0.0 0.00 0.00 0.00 55 1014.2
20260503060111 54 360 0.0 0.0 0.00 0.00 0.00 68 1014.6
20260503054547 52 360 0.0 0.0 0.00 0.00 0.00 68 1014.3
20260503053046 51 220 0.0 0.0 0.00 0.00 0.00 75 1014.2
20260503051542 49 224 0.0 0.0 0.00 0.00 0.00 80 1014.1
20260503050041 48 211 0.0 0.0 0.00 0.00 0.00 82 1014.2
20260503044607 47 209 0.0 0.0 0.00 0.00 0.00 83 1014.1
20260503043035 47 209 0.0 0.0 0.00 0.00 0.00 83 1014.2
20260503041533 47 209 0.0 0.0 0.00 0.00 0.00 83 1014.2
20260503040031 46 150 0.0 0.0 0.00 0.00 0.00 83 1014.2